SCP
0 0 0 0 0 0 0 0 0 0 0 0 0 0 0 0 0 0 0 0 0 0 0 0 0 0 0 0 0 0 0 0 0 1 0 0 0 0 0 0 0 0 0 0 0 0 0 0 0 0 0 0 0 0
0 0 0 0 0 0 0 0 0 0 0 0 0 0 0 0 0 0 0 0 0 0 0 0 0 0 0 0 0 0 0 0 0 0 0 0 2 0 0 0 0 0 0 0 0 0 0 0 0 0 0 1 0 0
0 0 0 0 0 0 0 0 0 0 0 0 0 0 0 0 0 0 0 0 0 0 0 0 0 0 0 0 0 0 0 0 0 0 0 0 1 0 0 0 0 0 0 0 0 0 0 0 0 0 0 0 0 0
0 0 0 0 0 0 0 0 0 0 0 0 0 0 0 0 0 0 0 0 0 0 0 0 0 0 0 0 0 0 0 0 0 0 0 0 0 0 1 0 0 1 0 0 0 0 0 0 0 0 0 0 0 0
0 0 0 0 0 0 0 0 0 0 0 0 0 0 0 0 0 0 0 0 0 0 0 0 0 0 0 0 0 0 0 0 0 0 0 0 0 0 0 0 0 0 1 0 0 0 0 1 0 0 0 0 0 0
0 0 0 0 0 0 0 0 0 0 0 0 0 0 0 0 0 0 0 0 0 0 0 0 0 0 0 0 0 0 0 0 0 0 0 0 0 0 0 0 0 0 0 0 0 0 0 0 0 0 0 0 0 0
0 0 0 0 0 0 0 0 0 0 0 0 0 0 0 0 0 0 0 0 0 0 0 0 0 0 0 0 0 0 0 0 0 0 0 0 0 0 0 0 0 0 0 0 0 0 0 0 0 0 0 0 0 0
0 0 0 0 0 0 0 0 0 0 0 0 0 0 0 0 0 0 0 0 0 0 0 0 0 0 0 0 0 0 0 0 0 0 0 0 0 0 0 0 0 0 0 0 0 0 0 0 0 0 0 0 0 1
0 0 0 0 0 0 0 0 0 0 0 0 0 0 0 0 0 0 0 0 0 0 0 0 0 0 0 0 0 0 0 0 0 0 0 0 0 0 0 0 0 0 0 0 0 0 0 0 0 0 0 0 0 0
0 0 0 0 0 0 0 0 0 0 0 0 0 0 0 0 0 0 0 0 0 0 0 0 0 0 0 0 0 0 0 0 0 0 0 0 0 0 0 0 0 0 0 0 0 0 0 0 0 0 0 0 0 0
0 0 0 0 0 0 0 0 0 0 0 0 0 0 0 0 0 0 0 0 0 0 0 0 0 0 0 0 0 0 0 0 0 0 0 0 0 0 0 0 0 0 0 0 0 0 0 0 0 0 0 0 0 0
0 0 0 0 0 0 0 0 0 0 0 0 0 0 0 0 0 0 0 0 0 0 0 0 0 0 0 0 0 0 0 0 0 0 0 0 0 0 0 0 0 0 0 0 0 0 0 0 0 0 0 0 0 0
0 0 0 0 0 0 0 0 0 0 0 0 0 0 0 0 0 0 0 0 0 0 0 0 0 0 0 0 0 0 0 0 0 0 0 0 0 0 0 0 0 0 0 0 0 0 0 0 0 0 0 0 0 0
0 0 0 0 0 0 0 0 0 0 0 0 0 0 0 0 0 0 0 0 0 0 0 0 0 0 0 0 0 0 0 0 0 0 0 0 0 0 0 0 0 0 0 0 0 0 0 0 0 0 0 0 0 0
0 0 0 0 0 0 0 0 0 0 0 0 0 0 0 0 0 0 0 0 0 0 0 0 0 0 0 0 0 0 0 0 0 0 0 0 0 0 0 0 0 0 0 0 0 0 0 0 0 0 0 0 0 0
0 0 0 0 0 0 0 0 0 0 0 0 0 0 0 0 0 0 0 0 0 0 0 0 0 0 0 0 0 0 0 0 0 0 0 0 0 0 0 0 0 0 0 0 0 0 0 0 0 0 0 0 0 0
0 0 0 0 0 0 0 0 0 0 0 0 0 0 0 0 0 0 0 0 0 0 0 0 0 0 0 0 0 0 0 0 0 0 0 0 0 0 0 0 0 0 0 0 0 0 0 0 0 0 0 0 0 0
0 0 0 0 0 0 0 0 0 0 0 0 0 0 0 0 0 0 0 0 0 0 0 0 0 0 0 0 0 0 0 0 0 0 0 0 0 0 0 0 0 0 0 0 0 0 0 0 0 0 0 0 0 0
0 0 0 0 0 0 0 0 0 0 0 0 0 0 0 0 0 0 0 0 0 0 0 0 0 0 0 0 0 0 0 0 0 0 0 0 0 0 0 0 0 0 0 0 0 0 0 0 0 0 0 0 0 0
0 0 0 0 0 0 0 0 0 0 0 0 0 0 0 0 0 0 0 0 0 0 0 0 0 0 0 0 0 0 0 0 0 0 0 0 0 0 0 0 0 0 0 0 0 0 0 0 0 0 0 0 0 0
0 0 0 0 0 0 0 0 0 0 0 0 0 0 0 0 0 0 0 0 0 0 0 0 0 0 0 0 0 0 0 0 0 0 -0 -0 -0 -0 -0 -0 -0 0 0 0 0 0 0 0 0 0 0 0 0 0
0 0 0 0 -0 0 0 0 0 0 0 0 0 0 -0 0 0 0 0 0 0 0 0 0 0 0 0 0 0 -0 0 0 0 0 0 -0 0 0 0 0 0 0 0 0 0 0 0 0 0 0 0 0 0 0
0 0 0 0 0 0 -0 0 0 0 0 0 0 0 0 0 0 0 0 0 0 0 0 0 0 0 0 0 0 0 0 0 0 -0 -0 -0 -0 -0 0 0 0 0 0 0 0 0 0 0 0 0 0 0 0 0
0 0 -0 -0 0 0 0 -0 -0 -0 -0 -0 -0 -0 0 0 0 -0 0 0 0 0 0 0 0 0 0 0 0 0 0 0 0 0 0 0 0 0 0 0 0 0 0 0 0 0 0 0 0 0 0 0 0 0
0 0 0 0 0 0 0 0 0 0 0 0 -0 -0 0 -0 -0 -0 -0 0 0 0 0 0 0 0 0 0 0 0 0 0 0 0 0 0 0 0 0 0 0 0 0 0 0 0 0 0 0 0 0 0 0 0
0 0 0 0 0 0 0 0 -0 -0 -0 -0 0 -0 0 0 0 -0 -0 0 0 0 0 0 0 0 0 0 0 0 0 0 0 0 0 0 0 0 0 0 0 0 0 0 0 0 0 0 0 0 0 0 0 0
0 0 0 0 0 -0 0 -0 -0 -0 0 0 0 0 -0 0 0 -0 0 0 0 0 0 0 0 0 0 0 0 0 0 0 0 0 0 0 0 0 0 0 0 0 0 0 0 0 0 0 0 0 0 0 0 0
0 0 0 0 0 0 0 0 0 0 0 0 0 0 0 0 0 0 0 0 0 -0 -0 0 0 0 0 0 0 0 0 0 0 0 0 0 0 0 0 0 0 0 0 0 0 0 0 0 0 0 0 0 0 0
0 0 0 0 0 0 0 0 0 0 0 0 0 0 0 0 0 0 0 0 -0 0 0 0 -0 -0 -0 0 0 0 0 0 0 0 0 0 0 0 0 0 0 0 0 0 0 0 0 0 0 0 0 0 0 0
0 0 0 0 0 0 0 0 0 0 0 0 0 0 0 0 0 -0 -0 -0 -0 -0 -0 -0 0 0 -0 0 0 0 0 0 0 0 0 0 0 -0 0 0 0 0 0 0 0 0 0 0 0 0 0 0 0 0
0 0 0 0 0 0 0 0 -0 -0 0 0 -0 0 0 0 -0 -0 -0 0 0 -0 -0 0 0 0 0 0 0 0 0 0 0 0 0 0 0 0 0 0 0 0 0 0 0 0 0 0 0 0 0 0 0 0
0 0 0 0 0 0 0 0 0 0 0 -0 0 0 -0 -0 0 0 0 0 0 0 0 0 0 0 0 0 0 0 0 0 0 0 0 0 0 0 0 0 0 0 0 0 0 0 0 0 0 0 0 0 0 0
0 0 0 0 0 0 0 0 -0 -0 -0 -0 -0 -0 -0 -0 0 0 0 0 0 0 0 0 0 0 0 0 0 0 0 0 0 0 0 0 0 0 0 0 0 0 0 0 0 0 0 0 0 0 0 0 0 0
Wind_Speed_500mb
77 66 60 57 52 46 39 32 24 18 12 7 5 3 3 3 5 8 9 12 11 6 9 9 13 10 6 3 5 11 4 6 7 2 2 2 4 1 3 2 4 6 7 5 5 6 13 19 15 13 3 5 12 33
72 66 63 58 52 46 38 31 24 17 11 7 4 4 4 4 6 9 12 12 11 12 11 11 20 29 30 23 12 7 4 3 3 1 1 4 4 4 2 6 2 5 5 2 12 8 4 23 7 22 6 2 13 34
69 67 63 58 51 44 36 29 21 15 10 6 4 5 6 7 7 11 12 11 11 12 20 24 23 31 41 39 28 8 5 4 6 12 3 2 7 2 5 5 3 5 6 6 4 4 16 27 33 41 20 22 19 30
71 67 61 55 47 39 32 25 18 13 8 5 4 6 9 10 10 12 11 11 13 7 7 6 4 10 17 23 35 43 26 10 1 19 4 4 6 8 4 2 5 3 12 6 10 24 23 27 31 34 34 45 38 32
70 64 57 49 41 34 27 21 15 9 5 3 4 6 9 12 11 12 13 15 18 8 6 15 32 22 28 32 27 23 35 48 16 7 6 6 7 6 4 4 8 15 8 6 13 15 12 20 29 25 22 30 33 33
66 59 52 44 36 29 22 17 11 7 4 3 4 5 7 10 11 8 7 17 20 15 6 7 9 7 6 13 33 41 36 29 16 9 9 10 13 6 6 7 10 18 17 17 8 26 41 55 52 42 34 39 41 43
61 53 45 37 30 24 18 13 8 6 5 4 5 5 5 6 7 7 5 4 19 17 4 11 10 5 7 11 23 29 32 26 18 11 13 13 12 13 6 17 19 31 49 58 64 41 41 35 34 50 53 49 46 42
53 45 38 32 26 20 15 11 8 5 4 4 4 3 2 6 11 14 10 14 22 8 2 6 8 9 4 4 8 18 16 20 18 14 8 14 12 14 14 30 39 56 49 48 51 37 33 36 38 42 38 39 43 46
47 41 34 28 23 18 13 9 6 4 2 0 3 9 13 17 10 12 14 13 12 2 4 4 5 1 16 3 4 10 13 10 13 15 16 16 13 16 20 36 43 46 38 41 38 42 45 47 55 55 54 56 52 55
42 37 31 26 21 17 12 8 6 4 6 9 14 8 8 9 16 14 10 10 9 6 7 8 7 6 11 11 2 2 9 7 7 15 13 12 21 50 62 68 66 63 60 62 60 62 75 68 55 54 56 55 59 60
39 34 29 24 20 16 12 10 7 7 12 9 6 5 15 14 10 6 5 7 8 7 11 11 15 15 11 6 6 3 3 5 6 9 11 9 9 24 57 72 77 78 76 72 61 64 61 60 59 57 53 54 61 63
35 31 26 22 18 15 13 12 11 9 12 10 12 16 13 7 4 5 5 3 7 5 7 7 9 12 9 10 7 7 7 3 10 8 7 6 11 33 26 31 34 35 40 43 43 47 46 48 51 56 61 62 62 61
32 28 24 21 17 14 13 12 13 14 14 12 7 6 2 2 4 8 12 6 5 2 8 7 7 6 9 9 10 6 8 11 2 7 8 7 5 14 20 19 14 11 11 14 17 20 22 26 30 34 40 43 43 38
28 23 19 16 14 12 11 10 11 10 7 7 4 3 4 5 5 4 2 3 5 11 20 20 9 6 7 8 8 8 8 6 9 9 15 8 11 17 13 9 8 14 18 16 17 20 20 22 25 29 32 27 22 24
23 19 14 12 11 10 9 8 8 5 6 5 2 4 7 8 4 2 1 3 7 11 17 17 13 9 7 7 9 8 7 11 8 9 1 14 20 14 14 13 16 19 22 21 23 24 21 23 26 27 25 19 15 27
21 19 16 13 12 11 8 6 5 5 1 4 7 7 8 5 13 8 8 8 15 17 19 9 10 6 11 8 9 14 6 6 3 5 13 17 16 15 16 16 18 20 23 23 23 25 24 23 21 18 13 7 22 33
13 15 13 12 15 13 8 4 1 2 3 5 10 21 19 10 13 17 11 7 19 10 7 12 11 20 6 9 10 7 8 4 12 18 17 20 21 20 19 17 16 18 20 23 24 24 22 19 14 12 16 27 30 21
12 11 6 9 15 16 12 2 2 5 9 13 11 15 20 26 26 23 20 14 7 4 6 4 16 10 12 19 11 10 13 10 12 13 13 14 18 21 24 26 25 25 26 25 25 25 24 21 21 22 21 14 22 32
8 6 10 12 17 13 5 3 4 6 12 13 21 26 26 27 33 43 34 25 11 15 11 9 12 10 16 14 14 15 18 14 22 29 29 21 18 22 26 29 27 22 21 23 25 24 21 19 21 30 35 36 27 17
3 5 5 6 14 9 5 3 6 10 9 8 19 21 18 24 26 33 39 43 37 6 16 10 13 26 23 14 12 19 24 26 35 43 38 25 29 32 35 29 21 19 20 19 17 14 12 9 14 20 22 18 21 34
3 2 5 8 12 7 7 6 10 10 13 13 20 21 17 18 22 27 36 34 25 14 16 33 48 53 41 27 27 42 45 35 36 40 46 52 43 40 32 23 15 9 10 16 24 31 36 30 27 27 30 44 45 33
4 4 6 5 6 6 8 13 11 11 11 15 17 15 16 14 18 16 17 24 19 39 47 46 53 45 48 45 28 25 45 53 46 44 39 37 33 27 20 14 4 8 9 12 16 13 12 14 15 17 19 25 21 19
1 6 6 7 5 7 10 12 10 8 8 8 7 7 9 10 8 11 10 15 16 28 37 39 38 36 38 38 34 31 36 36 36 54 37 26 17 12 11 14 14 18 17 14 15 8 14 18 15 16 22 26 31 32
10 7 4 5 10 9 7 10 12 10 9 9 6 7 7 6 5 7 7 8 13 14 15 23 29 34 33 28 28 26 25 24 23 24 22 18 14 10 16 17 21 18 15 16 23 28 22 23 23 26 27 25 22 19
5 7 6 10 9 10 7 7 9 6 6 4 6 8 6 5 5 6 6 6 10 21 28 27 23 26 29 21 19 13 13 13 11 13 14 12 10 16 21 28 33 40 37 35 34 35 34 32 28 23 19 14 11 11
8 11 14 13 10 12 9 6 6 6 5 6 8 8 6 5 7 7 3 14 30 37 25 23 26 22 16 18 14 13 10 16 21 29 34 31 35 39 39 47 50 46 38 33 28 23 23 21 19 15 14 13 13 12
8 10 19 19 12 9 10 12 12 8 6 7 6 5 5 7 5 5 17 22 10 13 16 18 14 21 24 24 22 22 26 33 41 46 40 36 32 26 27 30 31 30 27 26 20 13 9 4 3 6 9 10 10 11
17 11 9 12 14 16 7 5 5 6 6 9 7 4 4 3 3 8 9 17 31 19 20 27 36 36 34 43 40 34 41 32 27 27 29 25 23 24 22 18 14 10 7 5 2 9 12 12 10 10 8 8 9 11
14 18 12 13 13 10 8 9 8 10 11 6 2 3 5 5 12 10 13 22 27 37 44 46 43 38 41 42 36 28 21 21 22 21 22 14 10 11 14 15 14 15 16 15 15 13 10 7 6 7 9 11 13 14
10 8 7 8 5 0 9 4 11 23 10 6 6 19 29 35 20 18 27 32 30 28 28 30 29 27 27 25 25 21 15 12 11 9 13 13 14 16 17 17 18 18 16 12 11 11 11 11 12 13 14 15 15 16
10 5 4 9 4 5 7 17 27 31 30 30 25 27 20 16 31 30 34 36 27 23 21 24 26 28 27 26 23 19 26 25 22 19 17 18 18 17 15 13 11 10 10 11 12 13 12 12 13 14 13 14 15 16
8 5 4 3 4 6 11 4 2 6 9 8 5 12 11 10 9 11 23 22 23 26 27 26 26 29 31 29 26 26 24 22 20 21 20 18 16 14 13 13 11 10 10 11 11 12 12 11 12 12 13 13 14 17
4 10 10 8 5 3 1 2 0 1 3 5 7 8 9 6 7 5 14 9 7 9 10 15 20 21 24 24 22 24 23 22 21 20 20 19 19 18 17 15 13 11 10 11 12 13 14 15 14 14 14 15 18 20
Wind_Direction_500mb
184 184 186 183 181 179 179 179 180 182 186 192 210 229 229 200 203 209 209 216 212 242 248 225 222 230 253 290 312 339 289 37 345 66 286 135 248 126 251 207 206 206 175 216 142 230 269 151 137 210 205 211 234 199
177 179 177 176 174 173 173 172 173 174 176 185 218 241 245 223 209 219 224 224 238 253 249 245 246 240 242 255 288 313 301 268 44 322 5 278 225 221 256 238 112 230 245 300 218 245 337 221 290 221 168 217 228 208
171 172 170 170 170 168 168 167 168 168 172 183 219 250 251 240 223 225 231 240 255 279 282 266 264 252 243 242 234 254 248 170 99 61 328 308 259 204 224 222 263 187 169 235 283 193 260 251 260 254 261 257 279 231
168 166 166 166 165 165 165 164 163 165 170 183 220 247 253 251 230 224 219 217 221 263 285 279 242 257 245 234 233 234 231 175 172 335 288 271 261 207 238 335 264 55 162 223 248 276 283 267 265 277 265 256 263 227
162 162 163 162 163 163 162 161 161 162 174 194 227 245 247 244 237 222 218 217 210 208 296 291 296 274 242 241 235 232 231 238 280 287 233 239 248 224 199 269 238 191 194 240 289 341 305 309 336 328 286 272 255 237
158 160 161 161 161 159 159 158 160 164 178 218 256 256 243 229 228 210 209 224 217 213 302 293 290 275 238 232 223 229 229 226 214 217 233 242 242 230 253 242 254 217 244 244 262 300 308 309 302 316 303 301 278 256
157 158 157 157 156 156 155 156 158 170 189 225 265 267 240 214 201 159 175 208 174 174 259 290 289 256 298 234 226 224 219 218 211 222 229 245 247 200 244 243 246 270 284 287 289 288 292 294 295 301 304 306 301 279
154 155 154 152 151 152 151 149 152 170 195 238 273 249 160 119 128 148 117 113 153 168 277 286 282 308 357 220 187 192 186 197 216 226 231 225 232 218 248 247 254 265 273 278 279 281 286 296 293 307 308 307 301 288
151 150 147 146 145 142 140 138 139 150 176 194 127 116 104 124 114 140 151 140 162 165 312 273 286 315 339 341 217 181 183 193 199 218 224 214 220 226 234 242 243 251 253 269 282 289 288 292 294 295 298 297 292 293
148 146 143 140 136 133 133 125 117 93 106 121 130 107 101 111 119 126 134 171 191 220 223 258 256 268 338 340 320 221 196 236 215 213 184 220 241 247 249 253 256 258 261 272 278 284 291 294 288 287 290 289 289 286
142 137 133 130 127 127 119 106 95 107 124 121 107 97 131 126 140 158 168 196 167 216 213 244 249 267 313 307 316 274 302 245 245 185 207 209 237 238 253 255 261 266 270 273 273 278 283 281 281 285 286 288 288 288
133 128 123 119 118 113 101 89 72 93 105 102 113 119 125 136 130 176 189 179 218 248 203 223 245 223 243 240 280 257 263 224 246 145 220 234 244 258 275 280 279 275 270 269 274 284 287 287 285 283 282 283 279 280
127 123 116 107 104 98 91 84 69 83 108 100 72 72 72 132 128 194 182 189 218 266 357 333 295 237 214 225 249 268 248 242 316 219 223 228 61 345 341 328 319 299 293 282 281 285 298 306 303 300 300 294 288 275
128 119 111 105 96 89 84 84 71 111 96 66 56 70 209 190 239 206 166 9 358 346 343 335 282 231 198 193 234 249 244 275 243 232 229 225 336 322 327 335 344 347 331 316 308 311 314 318 327 335 330 320 297 258
119 106 91 84 76 69 61 67 65 91 66 57 37 233 222 232 264 93 278 320 359 358 341 329 274 239 228 246 214 264 245 239 245 253 26 336 329 333 335 330 337 330 331 324 318 316 314 318 320 320 320 306 273 210
114 102 83 66 57 43 38 46 54 63 137 172 219 245 252 261 233 233 281 287 335 345 323 249 260 251 232 231 207 222 243 249 11 305 313 317 325 346 345 339 339 331 323 321 323 323 318 315 309 304 293 224 173 171
122 107 86 57 39 25 8 31 58 235 220 232 236 229 247 264 252 238 261 280 302 320 247 270 231 214 279 232 227 218 244 306 297 300 310 325 337 347 345 339 325 318 322 324 321 319 312 293 267 205 163 165 169 194
112 113 91 37 16 6 16 80 239 216 250 241 246 246 230 239 249 245 245 220 220 230 212 268 314 257 235 247 235 234 216 273 286 300 313 321 322 324 324 325 326 326 322 321 319 313 308 282 234 205 211 250 273 283
106 97 80 51 16 360 349 340 275 276 253 254 256 261 254 252 253 257 249 229 255 294 255 242 242 247 240 248 281 285 271 287 309 302 302 309 320 317 323 332 332 328 331 329 320 312 297 272 258 258 267 280 292 273
142 139 95 10 353 350 322 266 241 268 267 280 271 265 250 250 256 253 257 245 229 339 226 222 234 259 288 266 290 296 316 315 315 312 308 306 314 318 329 327 322 332 344 353 7 20 23 342 312 300 295 271 196 137
33 257 278 301 314 286 264 247 238 250 279 260 282 282 274 264 253 244 239 229 215 201 231 225 256 264 277 286 296 294 299 305 307 308 302 301 307 309 305 301 315 357 36 60 84 94 97 99 113 103 93 108 102 99
113 2 328 257 243 256 264 239 248 278 266 263 278 251 256 254 249 234 200 191 225 232 234 243 255 258 265 273 268 269 275 290 295 305 299 294 293 294 273 266 236 156 129 131 137 101 102 115 127 109 104 117 123 125
62 313 275 241 251 244 259 231 232 236 254 258 262 248 230 235 229 209 232 221 229 236 242 250 261 274 273 271 276 277 278 281 271 280 290 281 282 267 253 238 211 199 185 181 194 194 150 146 155 145 140 128 121 121
316 287 251 250 225 263 251 229 222 240 238 234 233 264 263 250 275 250 252 234 240 241 256 279 289 292 294 277 275 281 287 284 269 257 253 245 208 221 220 183 167 161 150 147 148 137 127 122 126 131 135 134 122 104
274 235 207 250 232 244 233 259 229 245 263 246 266 262 257 257 249 243 244 275 306 308 308 299 285 275 270 265 266 269 270 258 197 164 132 130 133 138 128 125 118 116 115 113 115 114 120 128 125 127 125 114 92 65
248 221 208 212 216 212 209 254 229 246 249 250 245 262 271 281 258 249 321 317 297 296 289 284 294 283 216 208 197 186 180 161 147 123 110 113 119 117 106 100 102 91 90 92 90 89 99 102 107 105 99 84 67 48
253 247 223 235 255 280 279 269 269 273 253 253 256 279 249 240 263 324 5 15 349 311 282 277 261 191 173 167 157 146 144 141 132 119 105 95 87 90 93 91 82 85 84 75 65 66 64 45 77 89 80 71 52 43
237 264 230 237 241 240 260 265 258 252 253 243 255 237 264 267 301 327 97 65 50 78 97 108 100 93 100 102 101 113 110 105 100 107 105 105 101 90 80 77 83 82 71 49 36 116 113 114 105 97 86 68 68 67
240 240 234 255 230 227 234 225 244 247 243 269 301 298 271 304 72 79 121 102 55 72 72 73 74 75 73 80 85 74 83 86 76 60 61 74 86 73 66 60 72 80 81 100 113 113 105 101 94 87 90 85 78 66
259 229 226 213 234 320 12 278 285 7 198 158 99 85 64 76 103 106 105 101 92 80 83 84 82 76 77 78 81 88 101 112 120 138 132 111 95 87 85 83 81 82 80 78 82 88 84 79 79 77 75 72 62 48
308 319 296 14 20 59 95 68 66 76 79 75 76 70 61 71 80 65 71 64 59 59 58 56 57 55 54 57 63 76 87 88 92 93 89 90 94 104 110 104 89 78 73 76 79 78 74 78 78 71 61 50 40 32
315 344 306 272 251 260 287 275 341 12 9 30 55 49 52 52 59 50 56 59 59 53 51 50 54 59 52 48 55 65 69 77 80 78 77 79 87 91 93 90 80 63 58 64 68 70 71 71 67 58 48 38 26 16
309 341 332 312 292 262 216 249 149 283 353 39 50 59 62 65 71 41 32 30 21 23 40 52 47 46 45 45 56 59 59 60 65 69 71 70 67 66 69 72 70 65 67 70 74 74 69 62 55 43 31 19 10 3
Wind_Speed_850mb
77 66 60 57 52 46 39 32 24 18 12 7 5 3 3 3 5 8 9 12 11 6 9 9 13 10 6 3 5 11 4 6 7 2 2 2 4 1 3 2 4 6 7 5 5 6 13 19 15 13 3 5 12 33
72 66 63 58 52 46 38 31 24 17 11 7 4 4 4 4 6 9 12 12 11 12 11 11 20 29 30 23 12 7 4 3 3 1 1 4 4 4 2 6 2 5 5 2 12 8 4 23 7 22 6 2 13 34
69 67 63 58 51 44 36 29 21 15 10 6 4 5 6 7 7 11 12 11 11 12 20 24 23 31 41 39 28 8 5 4 6 12 3 2 7 2 5 5 3 5 6 6 4 4 16 27 33 41 20 22 19 30
71 67 61 55 47 39 32 25 18 13 8 5 4 6 9 10 10 12 11 11 13 7 7 6 4 10 17 23 35 43 26 10 1 19 4 4 6 8 4 2 5 3 12 6 10 24 23 27 31 34 34 45 38 32
70 64 57 49 41 34 27 21 15 9 5 3 4 6 9 12 11 12 13 15 18 8 6 15 32 22 28 32 27 23 35 48 16 7 6 6 7 6 4 4 8 15 8 6 13 15 12 20 29 25 22 30 33 33
66 59 52 44 36 29 22 17 11 7 4 3 4 5 7 10 11 8 7 17 20 15 6 7 9 7 6 13 33 41 36 29 16 9 9 10 13 6 6 7 10 18 17 17 8 26 41 55 52 42 34 39 41 43
61 53 45 37 30 24 18 13 8 6 5 4 5 5 5 6 7 7 5 4 19 17 4 11 10 5 7 11 23 29 32 26 18 11 13 13 12 13 6 17 19 31 49 58 64 41 41 35 34 50 53 49 46 42
53 45 38 32 26 20 15 11 8 5 4 4 4 3 2 6 11 14 10 14 22 8 2 6 8 9 4 4 8 18 16 20 18 14 8 14 12 14 14 30 39 56 49 48 51 37 33 36 38 42 38 39 43 46
47 41 34 28 23 18 13 9 6 4 2 0 3 9 13 17 10 12 14 13 12 2 4 4 5 1 16 3 4 10 13 10 13 15 16 16 13 16 20 36 43 46 38 41 38 42 45 47 55 55 54 56 52 55
42 37 31 26 21 17 12 8 6 4 6 9 14 8 8 9 16 14 10 10 9 6 7 8 7 6 11 11 2 2 9 7 7 15 13 12 21 50 62 68 66 63 60 62 60 62 75 68 55 54 56 55 59 60
39 34 29 24 20 16 12 10 7 7 12 9 6 5 15 14 10 6 5 7 8 7 11 11 15 15 11 6 6 3 3 5 6 9 11 9 9 24 57 72 77 78 76 72 61 64 61 60 59 57 53 54 61 63
35 31 26 22 18 15 13 12 11 9 12 10 12 16 13 7 4 5 5 3 7 5 7 7 9 12 9 10 7 7 7 3 10 8 7 6 11 33 26 31 34 35 40 43 43 47 46 48 51 56 61 62 62 61
32 28 24 21 17 14 13 12 13 14 14 12 7 6 2 2 4 8 12 6 5 2 8 7 7 6 9 9 10 6 8 11 2 7 8 7 5 14 20 19 14 11 11 14 17 20 22 26 30 34 40 43 43 38
28 23 19 16 14 12 11 10 11 10 7 7 4 3 4 5 5 4 2 3 5 11 20 20 9 6 7 8 8 8 8 6 9 9 15 8 11 17 13 9 8 14 18 16 17 20 20 22 25 29 32 27 22 24
23 19 14 12 11 10 9 8 8 5 6 5 2 4 7 8 4 2 1 3 7 11 17 17 13 9 7 7 9 8 7 11 8 9 1 14 20 14 14 13 16 19 22 21 23 24 21 23 26 27 25 19 15 27
21 19 16 13 12 11 8 6 5 5 1 4 7 7 8 5 13 8 8 8 15 17 19 9 10 6 11 8 9 14 6 6 3 5 13 17 16 15 16 16 18 20 23 23 23 25 24 23 21 18 13 7 22 33
13 15 13 12 15 13 8 4 1 2 3 5 10 21 19 10 13 17 11 7 19 10 7 12 11 20 6 9 10 7 8 4 12 18 17 20 21 20 19 17 16 18 20 23 24 24 22 19 14 12 16 27 30 21
12 11 6 9 15 16 12 2 2 5 9 13 11 15 20 26 26 23 20 14 7 4 6 4 16 10 12 19 11 10 13 10 12 13 13 14 18 21 24 26 25 25 26 25 25 25 24 21 21 22 21 14 22 32
8 6 10 12 17 13 5 3 4 6 12 13 21 26 26 27 33 43 34 25 11 15 11 9 12 10 16 14 14 15 18 14 22 29 29 21 18 22 26 29 27 22 21 23 25 24 21 19 21 30 35 36 27 17
3 5 5 6 14 9 5 3 6 10 9 8 19 21 18 24 26 33 39 43 37 6 16 10 13 26 23 14 12 19 24 26 35 43 38 25 29 32 35 29 21 19 20 19 17 14 12 9 14 20 22 18 21 34
3 2 5 8 12 7 7 6 10 10 13 13 20 21 17 18 22 27 36 34 25 14 16 33 48 53 41 27 27 42 45 35 36 40 46 52 43 40 32 23 15 9 10 16 24 31 36 30 27 27 30 44 45 33
4 4 6 5 6 6 8 13 11 11 11 15 17 15 16 14 18 16 17 24 19 39 47 46 53 45 48 45 28 25 45 53 46 44 39 37 33 27 20 14 4 8 9 12 16 13 12 14 15 17 19 25 21 19
1 6 6 7 5 7 10 12 10 8 8 8 7 7 9 10 8 11 10 15 16 28 37 39 38 36 38 38 34 31 36 36 36 54 37 26 17 12 11 14 14 18 17 14 15 8 14 18 15 16 22 26 31 32
10 7 4 5 10 9 7 10 12 10 9 9 6 7 7 6 5 7 7 8 13 14 15 23 29 34 33 28 28 26 25 24 23 24 22 18 14 10 16 17 21 18 15 16 23 28 22 23 23 26 27 25 22 19
5 7 6 10 9 10 7 7 9 6 6 4 6 8 6 5 5 6 6 6 10 21 28 27 23 26 29 21 19 13 13 13 11 13 14 12 10 16 21 28 33 40 37 35 34 35 34 32 28 23 19 14 11 11
8 11 14 13 10 12 9 6 6 6 5 6 8 8 6 5 7 7 3 14 30 37 25 23 26 22 16 18 14 13 10 16 21 29 34 31 35 39 39 47 50 46 38 33 28 23 23 21 19 15 14 13 13 12
8 10 19 19 12 9 10 12 12 8 6 7 6 5 5 7 5 5 17 22 10 13 16 18 14 21 24 24 22 22 26 33 41 46 40 36 32 26 27 30 31 30 27 26 20 13 9 4 3 6 9 10 10 11
17 11 9 12 14 16 7 5 5 6 6 9 7 4 4 3 3 8 9 17 31 19 20 27 36 36 34 43 40 34 41 32 27 27 29 25 23 24 22 18 14 10 7 5 2 9 12 12 10 10 8 8 9 11
14 18 12 13 13 10 8 9 8 10 11 6 2 3 5 5 12 10 13 22 27 37 44 46 43 38 41 42 36 28 21 21 22 21 22 14 10 11 14 15 14 15 16 15 15 13 10 7 6 7 9 11 13 14
10 8 7 8 5 0 9 4 11 23 10 6 6 19 29 35 20 18 27 32 30 28 28 30 29 27 27 25 25 21 15 12 11 9 13 13 14 16 17 17 18 18 16 12 11 11 11 11 12 13 14 15 15 16
10 5 4 9 4 5 7 17 27 31 30 30 25 27 20 16 31 30 34 36 27 23 21 24 26 28 27 26 23 19 26 25 22 19 17 18 18 17 15 13 11 10 10 11 12 13 12 12 13 14 13 14 15 16
8 5 4 3 4 6 11 4 2 6 9 8 5 12 11 10 9 11 23 22 23 26 27 26 26 29 31 29 26 26 24 22 20 21 20 18 16 14 13 13 11 10 10 11 11 12 12 11 12 12 13 13 14 17
4 10 10 8 5 3 1 2 0 1 3 5 7 8 9 6 7 5 14 9 7 9 10 15 20 21 24 24 22 24 23 22 21 20 20 19 19 18 17 15 13 11 10 11 12 13 14 15 14 14 14 15 18 20
Wind_Direction_850mb
184 184 186 183 181 179 179 179 180 182 186 192 210 229 229 200 203 209 209 216 212 242 248 225 222 230 253 290 312 339 289 37 345 66 286 135 248 126 251 207 206 206 175 216 142 230 269 151 137 210 205 211 234 199
177 179 177 176 174 173 173 172 173 174 176 185 218 241 245 223 209 219 224 224 238 253 249 245 246 240 242 255 288 313 301 268 44 322 5 278 225 221 256 238 112 230 245 300 218 245 337 221 290 221 168 217 228 208
171 172 170 170 170 168 168 167 168 168 172 183 219 250 251 240 223 225 231 240 255 279 282 266 264 252 243 242 234 254 248 170 99 61 328 308 259 204 224 222 263 187 169 235 283 193 260 251 260 254 261 257 279 231
168 166 166 166 165 165 165 164 163 165 170 183 220 247 253 251 230 224 219 217 221 263 285 279 242 257 245 234 233 234 231 175 172 335 288 271 261 207 238 335 264 55 162 223 248 276 283 267 265 277 265 256 263 227
162 162 163 162 163 163 162 161 161 162 174 194 227 245 247 244 237 222 218 217 210 208 296 291 296 274 242 241 235 232 231 238 280 287 233 239 248 224 199 269 238 191 194 240 289 341 305 309 336 328 286 272 255 237
158 160 161 161 161 159 159 158 160 164 178 218 256 256 243 229 228 210 209 224 217 213 302 293 290 275 238 232 223 229 229 226 214 217 233 242 242 230 253 242 254 217 244 244 262 300 308 309 302 316 303 301 278 256
157 158 157 157 156 156 155 156 158 170 189 225 265 267 240 214 201 159 175 208 174 174 259 290 289 256 298 234 226 224 219 218 211 222 229 245 247 200 244 243 246 270 284 287 289 288 292 294 295 301 304 306 301 279
154 155 154 152 151 152 151 149 152 170 195 238 273 249 160 119 128 148 117 113 153 168 277 286 282 308 357 220 187 192 186 197 216 226 231 225 232 218 248 247 254 265 273 278 279 281 286 296 293 307 308 307 301 288
151 150 147 146 145 142 140 138 139 150 176 194 127 116 104 124 114 140 151 140 162 165 312 273 286 315 339 341 217 181 183 193 199 218 224 214 220 226 234 242 243 251 253 269 282 289 288 292 294 295 298 297 292 293
148 146 143 140 136 133 133 125 117 93 106 121 130 107 101 111 119 126 134 171 191 220 223 258 256 268 338 340 320 221 196 236 215 213 184 220 241 247 249 253 256 258 261 272 278 284 291 294 288 287 290 289 289 286
142 137 133 130 127 127 119 106 95 107 124 121 107 97 131 126 140 158 168 196 167 216 213 244 249 267 313 307 316 274 302 245 245 185 207 209 237 238 253 255 261 266 270 273 273 278 283 281 281 285 286 288 288 288
133 128 123 119 118 113 101 89 72 93 105 102 113 119 125 136 130 176 189 179 218 248 203 223 245 223 243 240 280 257 263 224 246 145 220 234 244 258 275 280 279 275 270 269 274 284 287 287 285 283 282 283 279 280
127 123 116 107 104 98 91 84 69 83 108 100 72 72 72 132 128 194 182 189 218 266 357 333 295 237 214 225 249 268 248 242 316 219 223 228 61 345 341 328 319 299 293 282 281 285 298 306 303 300 300 294 288 275
128 119 111 105 96 89 84 84 71 111 96 66 56 70 209 190 239 206 166 9 358 346 343 335 282 231 198 193 234 249 244 275 243 232 229 225 336 322 327 335 344 347 331 316 308 311 314 318 327 335 330 320 297 258
119 106 91 84 76 69 61 67 65 91 66 57 37 233 222 232 264 93 278 320 359 358 341 329 274 239 228 246 214 264 245 239 245 253 26 336 329 333 335 330 337 330 331 324 318 316 314 318 320 320 320 306 273 210
114 102 83 66 57 43 38 46 54 63 137 172 219 245 252 261 233 233 281 287 335 345 323 249 260 251 232 231 207 222 243 249 11 305 313 317 325 346 345 339 339 331 323 321 323 323 318 315 309 304 293 224 173 171
122 107 86 57 39 25 8 31 58 235 220 232 236 229 247 264 252 238 261 280 302 320 247 270 231 214 279 232 227 218 244 306 297 300 310 325 337 347 345 339 325 318 322 324 321 319 312 293 267 205 163 165 169 194
112 113 91 37 16 6 16 80 239 216 250 241 246 246 230 239 249 245 245 220 220 230 212 268 314 257 235 247 235 234 216 273 286 300 313 321 322 324 324 325 326 326 322 321 319 313 308 282 234 205 211 250 273 283
106 97 80 51 16 360 349 340 275 276 253 254 256 261 254 252 253 257 249 229 255 294 255 242 242 247 240 248 281 285 271 287 309 302 302 309 320 317 323 332 332 328 331 329 320 312 297 272 258 258 267 280 292 273
142 139 95 10 353 350 322 266 241 268 267 280 271 265 250 250 256 253 257 245 229 339 226 222 234 259 288 266 290 296 316 315 315 312 308 306 314 318 329 327 322 332 344 353 7 20 23 342 312 300 295 271 196 137
33 257 278 301 314 286 264 247 238 250 279 260 282 282 274 264 253 244 239 229 215 201 231 225 256 264 277 286 296 294 299 305 307 308 302 301 307 309 305 301 315 357 36 60 84 94 97 99 113 103 93 108 102 99
113 2 328 257 243 256 264 239 248 278 266 263 278 251 256 254 249 234 200 191 225 232 234 243 255 258 265 273 268 269 275 290 295 305 299 294 293 294 273 266 236 156 129 131 137 101 102 115 127 109 104 117 123 125
62 313 275 241 251 244 259 231 232 236 254 258 262 248 230 235 229 209 232 221 229 236 242 250 261 274 273 271 276 277 278 281 271 280 290 281 282 267 253 238 211 199 185 181 194 194 150 146 155 145 140 128 121 121
316 287 251 250 225 263 251 229 222 240 238 234 233 264 263 250 275 250 252 234 240 241 256 279 289 292 294 277 275 281 287 284 269 257 253 245 208 221 220 183 167 161 150 147 148 137 127 122 126 131 135 134 122 104
274 235 207 250 232 244 233 259 229 245 263 246 266 262 257 257 249 243 244 275 306 308 308 299 285 275 270 265 266 269 270 258 197 164 132 130 133 138 128 125 118 116 115 113 115 114 120 128 125 127 125 114 92 65
248 221 208 212 216 212 209 254 229 246 249 250 245 262 271 281 258 249 321 317 297 296 289 284 294 283 216 208 197 186 180 161 147 123 110 113 119 117 106 100 102 91 90 92 90 89 99 102 107 105 99 84 67 48
253 247 223 235 255 280 279 269 269 273 253 253 256 279 249 240 263 324 5 15 349 311 282 277 261 191 173 167 157 146 144 141 132 119 105 95 87 90 93 91 82 85 84 75 65 66 64 45 77 89 80 71 52 43
237 264 230 237 241 240 260 265 258 252 253 243 255 237 264 267 301 327 97 65 50 78 97 108 100 93 100 102 101 113 110 105 100 107 105 105 101 90 80 77 83 82 71 49 36 116 113 114 105 97 86 68 68 67
240 240 234 255 230 227 234 225 244 247 243 269 301 298 271 304 72 79 121 102 55 72 72 73 74 75 73 80 85 74 83 86 76 60 61 74 86 73 66 60 72 80 81 100 113 113 105 101 94 87 90 85 78 66
259 229 226 213 234 320 12 278 285 7 198 158 99 85 64 76 103 106 105 101 92 80 83 84 82 76 77 78 81 88 101 112 120 138 132 111 95 87 85 83 81 82 80 78 82 88 84 79 79 77 75 72 62 48
308 319 296 14 20 59 95 68 66 76 79 75 76 70 61 71 80 65 71 64 59 59 58 56 57 55 54 57 63 76 87 88 92 93 89 90 94 104 110 104 89 78 73 76 79 78 74 78 78 71 61 50 40 32
315 344 306 272 251 260 287 275 341 12 9 30 55 49 52 52 59 50 56 59 59 53 51 50 54 59 52 48 55 65 69 77 80 78 77 79 87 91 93 90 80 63 58 64 68 70 71 71 67 58 48 38 26 16
309 341 332 312 292 262 216 249 149 283 353 39 50 59 62 65 71 41 32 30 21 23 40 52 47 46 45 45 56 59 59 60 65 69 71 70 67 66 69 72 70 65 67 70 74 74 69 62 55 43 31 19 10 3